Alliance, NE

2:18 PM MDT on May 22, 2018 (GMT -0600)
Alliance Municipal

Weather History for KAIA - March, 2012

Change the Weather History Date:

Thursday, March 29, 2012

  Actual Average Record
Temperature  
Mean Temperature 52 °F 41 °F  
Max Temperature 67 °F 55 °F 84 °F (1943)
Min Temperature 37 °F 26 °F -2 °F (1975)
Degree Days  
Heating Degree Days 13 24  
Month to date heating degree days 579 834  
Since 1 July heating degree days 5757 6238  
Cooling Degree Days 0 0  
Month to date cooling degree days 0 0  
Year to date cooling degree days 0 0  
Growing Degree Days 2 (Base 50)    
Moisture  
Dew Point 37 °F    
Average Humidity 62    
Maximum Humidity 100    
Minimum Humidity 24    
Precipitation  
Precipitation 0.00 in 0.06 in 1.10 in (1910)
Month to date precipitation 0.00 0.73  
Year to date precipitation 0.86 1.29  
Sea Level Pressure  
Sea Level Pressure 29.78 in    
Wind  
Wind Speed 7 mph (WNW)    
Max Wind Speed 22 mph    
Max Gust Speed 26 mph    
Visibility 7 miles    
Events Fog    
T = Trace of Precipitation, MM = Missing Value Source: NWS Daily Summary

Daily Weather History Graph

Daily Weather History Graph

Search for Another Location

Airport or City:

Astronomy

Mar. 29, 2012 Rise Set
Actual Time 6:38 AM MDT 7:14 PM MDT
Civil Twilight 6:09 AM MDT 7:42 PM MDT
Nautical Twilight 5:36 AM MDT 8:15 PM MDT
Astronomical Twilight 5:02 AM MDT 8:49 PM MDT
Moon 10:43 AM MDT (3/29) 1:12 AM MDT (3/29)
Length of Visible Light 13h 32m
Length of Day
12h 36m
Waxing Crescent, 40% of the Moon is Illuminated
Mar 29
Waxing Crescent
Mar 30
First Quarter
Apr 6
Full
Apr 13
Last Quarter
Apr 21
New

Hourly Weather History & Observations

Time (MDT) Temp. Windchill Dew Point Humidity Pressure Visibility Wind Dir Wind Speed Gust Speed Precip Events Conditions
12:53 AM 52.0 °F - 48.9 °F 89% 29.71 in 9.0 mi South 8.1 mph - N/A   Clear
1:53 AM 51.1 °F - 48.0 °F 89% 29.72 in 9.0 mi Calm Calm - N/A   Clear
2:53 AM 46.0 °F 44.8 °F 45.0 °F 96% 29.73 in 3.0 mi ESE 3.5 mph - N/A   Clear
2:55 AM 46.4 °F 45.2 °F 44.6 °F 93% 29.80 in 1.8 mi ESE 3.5 mph - N/A   Clear
2:57 AM 46.4 °F 45.2 °F 46.4 °F 100% 29.80 in 1.0 mi ESE 3.5 mph - N/A   Clear
3:04 AM 42.8 °F 38.6 °F 42.8 °F 100% 29.80 in 0.2 mi SE 6.9 mph - N/A Fog Fog
3:33 AM 44.6 °F - 42.8 °F 93% 29.80 in 0.2 mi Calm Calm - N/A Fog Fog
3:53 AM 42.1 °F 40.2 °F 41.0 °F 96% 29.73 in 0.2 mi South 3.5 mph - N/A Fog Fog
4:15 AM 42.8 °F 39.3 °F 42.8 °F 100% 29.80 in 1.0 mi South 5.8 mph - N/A   Clear
4:19 AM 44.6 °F 41.4 °F 42.8 °F 93% 29.80 in 1.8 mi SSW 5.8 mph - N/A   Clear
4:26 AM 44.6 °F - 44.6 °F 100% 29.79 in 2.0 mi Calm Calm - N/A   Clear
4:38 AM 44.6 °F - 44.6 °F 100% 29.79 in 4.0 mi Calm Calm - N/A   Clear
4:53 AM 44.1 °F - 44.1 °F 100% 29.72 in 5.0 mi Calm Calm - N/A   Clear
5:27 AM 46.4 °F 41.5 °F 44.6 °F 93% 29.82 in 5.0 mi WNW 10.4 mph - N/A   Partly Cloudy
5:53 AM 48.9 °F - 46.9 °F 93% 29.74 in 6.0 mi NW 9.2 mph - N/A   Partly Cloudy
6:53 AM 50.0 °F - 36.0 °F 59% 29.78 in 10.0 mi NW 9.2 mph - N/A   Scattered Clouds
7:53 AM 50.0 °F - 35.1 °F 57% 29.81 in 10.0 mi West 9.2 mph - N/A   Partly Cloudy
8:53 AM 53.1 °F - 35.1 °F 50% 29.83 in 10.0 mi West 11.5 mph - N/A   Clear
9:53 AM 55.9 °F - 33.1 °F 42% 29.83 in 10.0 mi NW 11.5 mph 21.9 mph N/A   Clear
10:53 AM 59.0 °F - 34.0 °F 39% 29.85 in 10.0 mi NNW 13.8 mph - N/A   Clear
11:53 AM 61.0 °F - 35.1 °F 38% 29.85 in 10.0 mi NNW 16.1 mph 21.9 mph N/A   Clear
12:53 PM 64.0 °F - 34.0 °F 33% 29.82 in 10.0 mi NW 13.8 mph 19.6 mph N/A   Clear
1:53 PM 64.9 °F - 33.1 °F 31% 29.79 in 10.0 mi NW 12.7 mph 20.7 mph N/A   Partly Cloudy
2:53 PM 66.9 °F - 28.9 °F 24% 29.77 in 10.0 mi NW 9.2 mph 18.4 mph N/A   Partly Cloudy
3:53 PM 66.9 °F - 30.0 °F 25% 29.77 in 10.0 mi NNW 10.4 mph - N/A   Partly Cloudy
4:53 PM 66.9 °F - 30.0 °F 25% 29.75 in 10.0 mi Calm Calm - N/A   Clear
5:53 PM 66.0 °F - 28.0 °F 24% 29.74 in 10.0 mi NW 8.1 mph - N/A   Clear
6:53 PM 59.0 °F - 27.0 °F 29% 29.75 in 10.0 mi WNW 5.8 mph - N/A   Clear
7:53 PM 50.0 °F - 25.0 °F 38% 29.79 in 10.0 mi Calm Calm - N/A   Clear
8:53 PM 48.9 °F - 27.0 °F 43% 29.80 in 10.0 mi SE 4.6 mph - N/A   Clear
9:53 PM 42.1 °F - 28.0 °F 58% 29.78 in 10.0 mi Calm Calm - N/A   Clear
10:53 PM 39.9 °F - 26.1 °F 58% 29.78 in 10.0 mi Calm Calm - N/A   Clear
11:53 PM 45.0 °F 41.2 °F 23.0 °F 42% 29.77 in 10.0 mi NW 6.9 mph - N/A   Partly Cloudy